Αρχική σελίδα
METAR-TAF:

METAR-TAF

Αεροδρόμια :

Broken Bow, Νεμπράσκα, Ηνωμένες Πολιτείες Αμερικής

γεωγραφικό πλάτος: 41-26N, γεωγραφικό μήκος: 099-39W, υψόμετρο: 776 μ

Παρών καιρός

Η αναφορά έγινε 16 λεπτά πριν, στις 17:53 UTC
Άνεμος 12 kt από ΝΔ
Θερμοκρασία 2°C
Υγρασία 64%
Πίεση 1022 hPa
Ορατότητα: 16.1 χλμ
Καθαρός ουρανός

METAR: KBBW 181753Z AUTO 22012KT 10SM CLR 02/M04 A3017 RMK AO2 SLP250 I6000 T00171044 10017 21117 58025

Χρόνος: 12:09 (18:09 UTC)


TAF: λείπει

Μετεωρολογικές αναφορές και προγνώσεις για περισσότερα από 4000 αεροδρόμια (δελτία METAR και TAF).

Οι διαθέσιμοι σταθμοί απεικονίζονται στο χάρτη με κίτρινες και κόκκινες κουκκίδες.

Μετακινήστε το ποντίκι πάνω από τις κουκκίδες για να δείτε το όνομα του σταθμού.

Στη συνέχεια, κάντε κλικ για να δείτε τις μετεωρολογικές αναφορές και τις προγνώσεις καιρού.

Για να αλλάξετε το χάρτη: κάντε κλικ στα πράσινα κουμπιά με τον μαύρο σταυρό για να ζουμάρετε, στο πράσινο κουμπί με την παύλα για να αφαιρέσετε το ζουμ ή στα πράσινα βέλη για να αντιπαραβάλλετε χάρτες.


METAR-TAF: